This is the latest recevied weather packets stored in our database for station/object OE-11061. If no packets are shown the sender has not sent any weather packets the latest 10 day(s).
| Time | Temp. | Humidity | Pressure | Rain* | Wind** | Luminosity | Snow |
|---|---|---|---|---|---|---|---|
| 1787589316 | 23.33° C | 54% | 1015.1 hPa | 0 mm | - | 269 W/m² | - |
| 1787588713 | 23.33° C | 54% | 1015.2 hPa | 0 mm | - | 336 W/m² | - |
| 1787587889 | 22.78° C | 56% | 1015.5 hPa | 0 mm | - | 157 W/m² | - |
| 1787587514 | 22.78° C | 53% | 1015.6 hPa | 0 mm | - | 217 W/m² | - |
| 1787586914 | 23.33° C | 54% | 1015.7 hPa | 0 mm | - | 202 W/m² | - |
| 1787586089 | 23.89° C | 50% | 1015.8 hPa | 0 mm | - | 366 W/m² | - |
| 1787585114 | 24.44° C | 50% | 1015.8 hPa | 0 mm | - | 463 W/m² | - |
| 1787584289 | 24.44° C | 50% | 1016 hPa | 0 mm | - | 485 W/m² | - |
| 1787583913 | 24.44° C | 50% | 1016.2 hPa | 0 mm | - | 538 W/m² | - |
| 1787583314 | 24.44° C | 51% | 1016.4 hPa | 0 mm | - | 545 W/m² | - |
| 1787582489 | 24.44° C | 49% | 1016.4 hPa | 0 mm | - | 560 W/m² | - |
| 1787582113 | 24.44° C | 49% | 1016.3 hPa | 0 mm | - | 583 W/m² | - |
| 1787581509 | 25° C | 48% | 1016.4 hPa | 0 mm | - | 605 W/m² | - |
| 1787580683 | 25° C | 49% | 1016.4 hPa | 0 mm | - | 627 W/m² | - |
| 1787580309 | 24.44° C | 50% | 1016.5 hPa | 0 mm | - | 650 W/m² | - |
| 1787579708 | 24.44° C | 49% | 1016.7 hPa | 0 mm | - | 665 W/m² | - |
| 1787578883 | 25° C | 50% | 1016.6 hPa | 0 mm | - | 695 W/m² | - |
| 1787578509 | 25° C | 48% | 1016.7 hPa | 0 mm | - | 709 W/m² | - |
| 1787577908 | 25° C | 46% | 1017.1 hPa | 0 mm | - | 769 W/m² | - |
| 1787577084 | 24.44° C | 45% | 1017.2 hPa | 0 mm | - | 732 W/m² | - |
| 1787576708 | 24.44° C | 49% | 1017.4 hPa | 0 mm | - | 769 W/m² | - |
| 1787576108 | 24.44° C | 49% | 1017.6 hPa | 0 mm | - | 627 W/m² | - |
| 1787575283 | 24.44° C | 46% | 1017.5 hPa | 0 mm | - | 754 W/m² | - |
| 1787574908 | 24.44° C | 46% | 1017.6 hPa | 0 mm | - | 784 W/m² | - |
| 1787574307 | 24.44° C | 46% | 1017.7 hPa | 0 mm | - | 784 W/m² | - |
* Rain latest hour (hover to see other rain measurements)
** Current wind speed in m/s (hover to see current wind gust speed)